EW7346 Weather Reports


Display with metric or nautical units.
time (UTC)temp
F
wind
direction
speed
MPH
gust
MPH
rain 1hr
in
rain 24hr
in
rain mn
in
humidity
%
barometer
mb
20260505111843 39 146 0.0 0.0 0.00 0.00 0.00 74 1012.8
20260505110849 40 146 0.0 0.0 0.00 0.00 0.00 72 1012.9
20260505110845 39 146 0.0 0.0 0.00 0.00 0.00 73 1013.0
20260505101833 40 144 0.0 3.0 0.00 0.00 0.00 70 1013.3
20260505100833 40 189 1.0 4.0 0.00 0.00 0.00 71 1013.3
20260505095834 40 126 1.0 4.0 0.00 0.00 0.00 71 1013.4
20260505094836 40 190 1.0 4.0 0.00 0.00 0.00 70 1013.6
20260505094831 40 180 1.0 4.0 0.00 0.00 0.00 71 1013.6
20260505092830 40 252 0.0 4.0 0.00 0.00 0.00 69 1013.6
20260505091830 40 117 0.0 0.0 0.00 0.00 0.00 67 1013.8
20260505090828 40 98 0.0 0.0 0.00 0.00 0.00 67 1013.7
20260505085826 41 98 0.0 2.0 0.00 0.00 0.00 66 1013.7
20260505084824 41 96 0.0 0.0 0.00 0.00 0.00 65 1013.8
20260505083824 41 96 0.0 1.0 0.00 0.00 0.00 65 1014.0
20260505082823 41 90 0.0 3.0 0.00 0.00 0.00 64 1014.0
20260505081826 42 59 1.0 4.0 0.00 0.00 0.00 65 1014.1
20260505081822 41 90 0.0 3.0 0.00 0.00 0.00 65 1014.0
20260505080939 42 138 1.0 5.0 0.00 0.00 0.00 66 1014.1
20260505074821 42 181 1.0 4.0 0.00 0.00 0.00 67 1014.2
20260505073821 42 76 1.0 5.0 0.00 0.00 0.00 70 1014.2
20260505072828 43 74 2.0 4.0 0.00 0.00 0.00 69 1014.5
20260505072822 42 75 1.0 6.0 0.00 0.00 0.00 70 1014.4
20260505070816 43 81 2.0 4.0 0.00 0.00 0.00 68 1014.6
20260505065814 43 56 1.0 3.0 0.00 0.00 0.00 65 1014.4
20260505064813 44 69 2.0 4.0 0.00 0.00 0.00 65 1014.5
20260505063813 44 74 2.0 3.0 0.00 0.00 0.00 65 1014.4
20260505062814 44 55 1.0 4.0 0.00 0.00 0.00 64 1014.6
20260505061813 44 53 0.0 2.0 0.00 0.00 0.00 63 1014.4
20260505060813 44 53 0.0 0.0 0.00 0.00 0.00 63 1014.4
20260505055812 44 53 0.0 0.0 0.00 0.00 0.00 63 1014.4
20260505054813 44 53 0.0 0.0 0.00 0.00 0.00 62 1014.6
20260505053814 45 53 0.0 0.0 0.00 0.00 0.00 64 1014.6
20260505052810 45 53 0.0 2.0 0.00 0.00 0.00 64 1014.5
20260505051810 45 53 0.0 2.0 0.00 0.00 0.00 65 1014.6
20260505050811 45 51 1.0 3.0 0.00 0.00 0.00 64 1014.6
20260505040804 44 36 1.0 5.0 0.00 0.00 0.00 70 1014.6
20260505035802 45 78 1.0 5.0 0.00 0.00 0.00 68 1014.5
20260505034808 46 59 0.0 3.0 0.00 0.00 0.00 65 1014.2
20260505034803 45 34 1.0 5.0 0.00 0.00 0.00 67 1014.4
20260505032805 48 232 1.0 4.0 0.00 0.00 0.00 64 1014.4
20260505032800 47 232 0.0 0.0 0.00 0.00 0.00 60 1014.6
20260505030753 48 241 0.0 5.0 0.00 0.00 0.00 53 1014.1
20260505025753 49 17 0.0 2.0 0.00 0.00 0.00 50 1013.8
20260505025748 49 17 0.0 0.0 0.00 0.00 0.00 50 1013.7
20260505023748 49 17 0.0 2.0 0.00 0.00 0.00 50 1013.7
20260505022749 49 335 0.0 0.0 0.00 0.00 0.00 49 1013.6
20260505021744 50 335 0.0 0.0 0.00 0.00 0.00 48 1013.2
20260505020745 50 335 0.0 0.0 0.00 0.00 0.00 47 1013.0
20260505015745 51 335 0.0 1.0 0.00 0.00 0.00 47 1013.2
20260505015739 51 335 0.0 2.0 0.00 0.00 0.00 46 1012.8
20260505013736 52 336 1.0 4.0 0.00 0.00 0.00 45 1012.9
20260505012738 52 348 1.0 5.0 0.00 0.00 0.00 44 1012.8
20260505011737 53 348 1.0 4.0 0.00 0.00 0.00 43 1012.7
20260505010735 53 0 1.0 4.0 0.00 0.00 0.00 42 1012.5
20260505005735 54 346 1.0 5.0 0.00 0.00 0.00 41 1012.5
20260505004731 55 327 1.0 3.0 0.00 0.00 0.00 39 1012.5
20260505003723 55 11 0.0 1.0 0.00 0.00 0.00 36 1012.5
20260505002720 55 47 0.0 0.0 0.00 0.00 0.00 34 1012.5
20260505001720 56 47 0.0 1.0 0.00 0.00 0.00 34 1012.4
20260505000721 55 47 0.0 0.0 0.00 0.00 0.00 35 1012.7
20260504235719 55 47 0.0 3.0 0.00 0.00 0.00 36 1012.5
20260504234721 55 185 2.0 5.0 0.00 0.00 0.00 34 1012.5
20260504234716 55 189 0.0 3.0 0.00 0.00 0.00 34 1012.5
20260504232715 55 74 1.0 5.0 0.00 0.00 0.00 34 1012.7
20260504231719 55 69 1.0 3.0 0.00 0.00 0.00 34 1012.7
20260504231715 55 5 1.0 5.0 0.00 0.00 0.00 35 1012.7
20260504225712 55 0 0.0 3.0 0.00 0.00 0.00 34 1012.8
20260504224712 55 98 1.0 4.0 0.00 0.00 0.00 34 1012.7
20260504223706 56 175 2.0 6.0 0.00 0.00 0.00 34 1012.8
20260504222708 56 221 1.0 4.0 0.00 0.00 0.00 34 1013.0
20260504221707 56 171 1.0 4.0 0.00 0.00 0.00 34 1013.0
20260504220707 56 181 2.0 7.0 0.00 0.00 0.00 33 1013.0
20260504215706 57 201 1.0 7.0 0.00 0.00 0.00 33 1013.4
20260504214707 57 326 1.0 3.0 0.00 0.00 0.00 35 1013.7
20260504213703 57 55 2.0 5.0 0.00 0.00 0.00 34 1013.7
20260504212703 57 347 1.0 4.0 0.00 0.00 0.00 34 1013.8
20260504211705 57 239 1.0 6.0 0.00 0.00 0.00 33 1014.1
20260504211700 57 355 1.0 5.0 0.00 0.00 0.00 34 1013.8
20260504205703 55 235 1.0 7.0 0.00 0.00 0.00 36 1014.4
20260504205659 56 294 2.0 9.0 0.00 0.00 0.00 35 1014.4
20260504203704 55 293 3.0 8.0 0.00 0.00 0.00 36 1014.9
20260504203700 55 244 2.0 7.0 0.00 0.00 0.00 36 1014.7
20260504201657 56 194 3.0 8.0 0.00 0.00 0.00 36 1014.9
20260504200658 57 210 4.0 12.0 0.00 0.00 0.00 35 1015.1
20260504200652 58 279 3.0 8.0 0.00 0.00 0.00 32 1015.0
20260504194651 58 233 2.0 8.0 0.00 0.00 0.00 35 1015.0
20260504193650 58 302 3.0 9.0 0.00 0.00 0.00 33 1014.9
20260504192648 58 292 2.0 8.0 0.00 0.00 0.00 31 1014.9
20260504191649 59 255 4.0 14.0 0.00 0.00 0.00 29 1015.0
20260504190649 60 261 3.0 11.0 0.00 0.00 0.00 29 1015.0
20260504185639 60 294 3.0 10.0 0.00 0.00 0.00 28 1015.0
20260504184638 60 306 3.0 8.0 0.00 0.00 0.00 28 1015.0
20260504183637 59 284 3.0 11.0 0.00 0.00 0.00 31 1015.0
20260504182644 58 244 5.0 14.0 0.00 0.00 0.00 29 1015.7
20260504182638 59 246 4.0 13.0 0.00 0.00 0.00 29 1015.5
20260504181638 58 219 5.0 12.0 0.00 0.00 0.00 29 1015.7
20260504175639 58 313 4.0 13.0 0.00 0.00 0.00 30 1015.7
20260504174639 57 244 4.0 14.0 0.00 0.00 0.00 29 1015.8
20260504174634 57 257 3.0 10.0 0.00 0.00 0.00 29 1016.1
20260504173628 57 315 4.0 14.0 0.00 0.00 0.00 29 1016.1
20260504171629 56 264 2.0 6.0 0.00 0.00 0.00 32 1016.1
20260504170629 55 243 2.0 12.0 0.00 0.00 0.00 32 1015.9
20260504150607 49 257 1.0 5.0 0.00 0.00 0.00 51 1017.5
20260504140600 48 288 2.0 6.0 0.00 0.00 0.00 51 1016.8
20260504130553 43 74 0.0 2.0 0.00 0.00 0.00 60 1016.2
20260504130549 43 98 1.0 3.0 0.00 0.00 0.00 60 1016.3